This demonstration page uses our WeatherBlox Daily Observations layout. Learn more.

Left ArrowRight Arrow

39.51506, -84.39828

Hourly Observations for May 24, 2017

Temp ( °F °C ) Dew Point ( °F °C ) Humidity (%) Winds ( mph kmh ) Pressure ( in mb ) Visibility ( mi km ) Precip ( " mm )
12:15 am 00:15 Clear 69 20.8 56 13.3 62 62 SSE 5 7 29.65 1004 10 16 0.00 0.00
12:35 am 00:35 Clear 69 20.8 56 13.5 63 63 SSE 6 9 29.65 1004 10 16 0.00 0.00
12:55 am 00:55 Clear 69 20.6 57 13.9 66 66 S 6 9 29.65 1004 10 16 0.00 0.00
1:15 am 01:15 Partly Cloudy 67 19.6 56 13.1 66 66 S 6 9 29.65 1004 10 16 0.00 0.00
1:35 am 01:35 Partly Cloudy 67 19.5 56 13.5 68 68 SSE 3 6 29.65 1004 10 16 0.00 0.00
1:55 am 01:55 Partly Cloudy 67 19.5 56 13.5 68 68 S 3 6 29.62 1003 10 16 0.00 0.00
2:15 am 02:15 Partly Cloudy 66 18.9 56 13.3 70 70 S 5 7 29.62 1003 10 16 0.00 0.00
2:35 am 02:35 Clear 65 18.1 55 12.5 70 70 Calm 29.62 1003 10 16 0.00 0.00
2:55 am 02:55 Clear 63 17.1 55 12.7 75 75 Calm 29.59 1002 10 16 0.00 0.00
3:15 am 03:15 Clear 62 16.8 55 12.7 77 77 Calm 29.59 1002 10 16 0.00 0.00
3:35 am 03:35 Clear 62 16.7 55 12.6 77 77 Calm 29.62 1003 10 16 0.00 0.00
3:55 am 03:55 Clear 62 16.6 55 12.6 77 77 Calm 29.59 1002 10 16 0.00 0.00
4:15 am 04:15 Clear 62 16.6 55 12.6 77 77 Calm 29.59 1002 10 16 0.00 0.00
4:35 am 04:35 Clear 60 15.3 54 12 81 81 Calm 29.59 1002 10 16 0.00 0.00
4:55 am 04:55 Clear 60 15.3 54 12.2 82 82 Calm 29.59 1002 10 16 0.00 0.00
5:15 am 05:15 Clear 60 15.3 54 12.3 82 82 Calm 29.56 1001 7 11 0.00 0.00
5:30 am 05:30 Clear 59 15.2 54 12.3 83 83 Calm 29.56 1001 7 11 0.00 0.00
5:55 am 05:55 Clear 57 13.9 52 11.1 83 83 Calm 29.56 1001 7 11 0.00 0.00
6:15 am 06:15 Hazy 59 14.8 53 11.9 83 83 Calm 29.59 1002 5 8 0.00 0.00
6:35 am 06:35 Sunny 60 15.3 55 12.6 84 84 Calm 29.56 1001 7 11 0.00 0.00
6:55 am 06:55 Sunny 60 15.3 55 12.7 85 85 N 3 6 29.56 1001 7 11 0.00 0.00
7:10 am 07:10 Mostly Cloudy 60 15.3 55 12.7 85 85 Calm 29.56 1001 7 11 0.00 0.00
7:35 am 07:35 Cloudy 61 16 56 13.3 84 84 Calm 29.56 1001 7 11 0.00 0.00
7:55 am 07:55 Cloudy 61 16 56 13.1 83 83 Calm 29.56 1001 10 16 0.00 0.00
8:15 am 08:15 Mostly Cloudy 62 16.6 56 13.6 83 83 Calm 29.56 1001 10 16 0.00 0.00
8:35 am 08:35 Cloudy 63 17 56 13.6 81 81 Calm 29.56 1001 10 16 0.00 0.00
8:55 am 08:55 Cloudy 64 18 58 14.3 79 79 Calm 29.56 1001 10 16 0.00 0.00
9:15 am 09:15 Cloudy 68 20.1 60 15.6 75 75 E 7 11 29.56 1001 10 16 0.00 0.00
9:35 am 09:35 Cloudy 69 20.8 60 15.6 72 72 E 6 9 29.53 1000 10 16 0.00 0.00
9:55 am 09:55 Cloudy 69 20.8 60 15.5 72 72 E 7 11 29.53 1000 10 16 0.00 0.00
10:15 am 10:15 Cloudy 69 20.8 60 15.5 72 72 E 6 9 29.53 1000 10 16 0.00 0.00
10:35 am 10:35 Cloudy 69 20.8 60 15.4 71 71 E 8 13 29.53 1000 10 16 0.00 0.00
10:55 am 10:55 Cloudy with Drizzle 69 20.8 60 15.5 72 72 E 6 9 29.53 1000 10 16 0.00 0.00
11:15 am 11:15 Cloudy with Drizzle 69 20.8 60 15.7 73 73 ENE 6 9 29.53 1000 10 16 0.00 0.00
11:35 am 11:35 Cloudy 69 20.8 60 15.4 71 71 E 8 13 29.50 999 10 16 0.00 0.00
11:55 am 11:55 Mostly Cloudy 69 20.8 57 13.9 65 65 E 8 13 29.50 999 10 16 0.00 0.00
12:15 pm 12:15 Partly Cloudy 69 20.8 56 13.1 62 62 E 7 11 29.50 999 10 16 0.00 0.00
12:35 pm 12:35 Mostly Cloudy 69 20.8 55 13 61 61 ESE 9 15 29.47 998 10 16 0.00 0.00
12:55 pm 12:55 Cloudy 70 21.1 56 13.2 61 61 ESE 9 15 29.47 998 10 16 0.00 0.00
1:15 pm 13:15 Mostly Cloudy 72 22 56 13.1 57 57 E 12 19 29.47 998 10 16 0.00 0.00
1:35 pm 13:35 Mostly Cloudy 74 23.6 58 14.2 56 56 E 13 20 29.41 996 10 16 0.00 0.00
1:55 pm 13:55 Mostly Cloudy 74 23.2 56 13.2 53 53 E 8 13 29.41 996 10 16 0.00 0.00
2:15 pm 14:15 Mostly Cloudy 72 22.3 55 12.9 55 55 E 10 17 29.44 997 10 16 0.00 0.00
2:35 pm 14:35 Mostly Cloudy 71 21.6 54 12.3 56 56 E 9 15 29.44 997 10 16 0.00 0.00
2:55 pm 14:55 Mostly Cloudy 69 20.8 54 12.3 58 58 E 7 11 29.44 997 10 16 0.00 0.00
3:15 pm 15:15 Cloudy 70 21.1 54 12.4 58 58 E 7 11 29.41 996 10 16 0.00 0.00
3:35 pm 15:35 Mostly Cloudy 72 22.3 56 13.3 57 57 E 12 19 29.38 995 10 16 0.00 0.00
3:55 pm 15:55 Mostly Cloudy 74 23.4 57 13.8 55 55 E 7 11 29.38 995 10 16 0.00 0.00
4:15 pm 16:15 Cloudy 72 22.3 55 13 56 56 ENE 7 11 29.38 995 10 16 0.00 0.00
4:35 pm 16:35 Cloudy 71 21.9 56 13.1 58 58 ENE 7 11 29.35 994 10 16 0.00 0.00
4:55 pm 16:55 Cloudy 69 20.8 54 12.2 58 58 NE 9 15 29.38 995 10 16 0.00 0.00
5:15 pm 17:15 Cloudy with Light Rain 69 20.8 57 14.1 66 66 NE 8 13 29.38 995 10 16 0.00 0.00
5:35 pm 17:35 Cloudy with Light Rain 69 20.8 56 13.3 62 62 ENE 12 19 29.38 995 10 16 0.00 0.00
5:55 pm 17:55 Cloudy with Drizzle 69 20.8 56 13.2 62 62 E 10 17 29.38 995 10 16 0.00 0.00
6:15 pm 18:15 Cloudy 64 17.9 57 13.7 77 77 SSW 6 9 29.38 995 10 16 0.00 0.00
6:35 pm 18:35 Cloudy 62 16.9 55 12.9 77 77 W 7 11 29.38 995 10 16 0.00 0.00
6:55 pm 18:55 Cloudy with Light Rain 62 16.6 56 13.1 80 80 NW 6 9 29.38 995 3 4 0.00 0.00
7:15 pm 19:15 Cloudy 62 16.6 55 13 79 79 W 12 19 29.38 995 10 16 0.00 0.00
7:35 pm 19:35 Cloudy with Light Rain 61 16.1 55 12.6 80 80 WNW 9 15 29.38 995 10 16 0.00 0.00
7:55 pm 19:55 Cloudy with Rain 61 16 55 12.6 80 80 WNW 8 13 29.38 995 4 6 0.00 0.00
8:15 pm 20:15 Cloudy with Rain 61 16 55 12.6 80 80 NNW 6 9 29.38 995 2 3 0.00 0.00
8:35 pm 20:35 Cloudy with Heavy Rain 60 15.5 55 12.5 82 82 NE 3 6 29.38 995 3 5 0.00 0.00
8:55 pm 20:55 Cloudy with Rain 60 15.3 54 12.4 83 83 Calm 29.38 995 3 5 0.00 0.00
9:15 pm 21:15 Cloudy with Light Rain 60 15.3 55 12.5 84 84 NE 5 7 29.38 995 10 16 0.00 0.00
9:35 pm 21:35 Cloudy 60 15.3 55 12.5 84 84 Calm 29.38 995 10 16 0.00 0.00
9:55 pm 21:55 Cloudy 60 15.5 55 12.7 84 84 Calm 29.38 995 10 16 0.00 0.00
10:15 pm 22:15 Cloudy 60 15.5 55 12.9 85 85 Calm 29.38 995 10 16 0.00 0.00
10:35 pm 22:35 Cloudy 60 15.5 55 12.8 84 84 Calm 29.38 995 10 16 0.00 0.00
10:55 pm 22:55 Cloudy with Light Rain 60 15.4 55 12.8 85 85 Calm 29.38 995 10 16 0.00 0.00
11:15 pm 23:15 Mostly Cloudy 60 15.3 55 12.8 85 85 Calm 29.38 995 10 16 0.00 0.00
11:35 pm 23:35 Cloudy with Light Rain 61 15.9 56 13.5 86 86 S 5 7 29.38 995 10 16 0.00 0.00
11:55 pm 23:55 Cloudy with Drizzle 61 16 56 13.5 85 85 WSW 3 6 29.38 995 10 16 0.00 0.00

Powered by AerisWeather